Geely Xingzuo 04 zu 07 xing

operational
NORAD ID: 65125 Int'l Des: 2025-170 Owner: GEESP Country: CN Constellation: geesatcom
LEOCIRCULAR

Geely Xingzuo 04 zu 07 xingについて

説明を読み込み中...

リアルタイム位置

3D地球を読み込み中...

次回通過

高度履歴

Altitude vs Time

uPlot chart will show altitude changes over time

軌道要素

1 65125U 25170G 26062.13076497 .00002701 00000-0 35078-3 0 9993
2 65125 49.9918 305.9246 0018397 7.1751 352.9447 14.83586316 30685
Epoch: Mar 3, 2026 • Age: 25 hours

現在のステータス

高度 638.8 km
速度 7.54 km/s
衛星直下点 -49.58°S, 18.4°E
打ち上げ日 Aug 8, 2025
運用期間 0.5 years
タイプ other

技術仕様

分類 Payload
質量 130.00 kg
乾燥質量 130.00 kg
総質量 130.00 kg
長さ 1.00 m
直径 0.50 m
スパン 2.00 m
形状 Box + 2 pan
製造者 GWCG
バスタイプ GPS100
フェーズステータス In Orbit
所有者/国 GEESP/CN

大規模コンステレーション

Loading constellations...